TimeMST,TemperatureF,Dew PointF,Humidity,Sea Level PressureIn,VisibilityMPH,Wind Direction,Wind SpeedMPH,Gust SpeedMPH,PrecipitationIn,Events,Conditions,WindDirDegrees,DateUTC
12:53 AM,30.0,21.0,69,29.94,10.0,NNW,3.5,-,N/A,,Clear,340,2013-02-17 07:53:00
1:53 AM,27.0,19.9,75,29.95,10.0,WSW,6.9,-,N/A,,Clear,240,2013-02-17 08:53:00
2:53 AM,27.0,19.9,75,29.91,10.0,West,3.5,-,N/A,,Clear,260,2013-02-17 09:53:00
3:53 AM,25.0,19.0,78,29.89,10.0,WSW,6.9,-,N/A,,Clear,250,2013-02-17 10:53:00
4:53 AM,25.0,18.0,75,29.88,10.0,SW,6.9,-,N/A,,Clear,230,2013-02-17 11:53:00
5:53 AM,26.6,19.4,74,29.82,10.0,WSW,8.1,-,N/A,,Clear,240,2013-02-17 12:53:00
6:53 AM,25.0,19.0,78,29.86,10.0,WSW,4.6,-,N/A,,Clear,240,2013-02-17 13:53:00
7:53 AM,30.0,21.0,69,29.85,10.0,SW,5.8,-,N/A,,Clear,230,2013-02-17 14:53:00
8:53 AM,37.9,24.1,57,29.82,10.0,SW,10.4,-,N/A,,Clear,220,2013-02-17 15:53:00
9:53 AM,48.9,21.9,35,29.77,10.0,WSW,8.1,-,N/A,,Clear,240,2013-02-17 16:53:00
10:53 AM,53.1,17.1,24,29.74,10.0,SW,13.8,-,N/A,,Clear,220,2013-02-17 17:53:00
11:53 AM,55.9,15.1,20,29.69,10.0,SW,9.2,-,N/A,,Clear,220,2013-02-17 18:53:00
12:53 PM,59.0,12.9,16,29.63,10.0,South,9.2,-,N/A,,Clear,190,2013-02-17 19:53:00
1:53 PM,61.0,10.0,13,29.61,10.0,Calm,Calm,-,N/A,,Clear,0,2013-02-17 20:53:00
2:53 PM,60.1,15.1,17,29.58,10.0,NNE,4.6,-,N/A,,Clear,20,2013-02-17 21:53:00
3:53 PM,55.9,18.0,23,29.56,10.0,ENE,6.9,-,N/A,,Clear,60,2013-02-17 22:53:00
4:53 PM,46.9,19.0,33,29.57,10.0,NE,9.2,-,N/A,,Clear,40,2013-02-17 23:53:00
5:53 PM,43.0,19.0,38,29.58,10.0,NE,8.1,-,N/A,,Clear,50,2013-02-18 00:53:00
6:53 PM,41.0,21.0,45,29.61,10.0,NNW,20.7,27.6,N/A,,Clear,340,2013-02-18 01:53:00
7:53 PM,42.1,23.0,47,29.62,10.0,North,12.7,-,N/A,,Clear,360,2013-02-18 02:53:00
8:53 PM,43.0,25.0,49,29.64,10.0,North,25.3,35.7,N/A,,Clear,350,2013-02-18 03:53:00
10:53 PM,37.0,28.0,70,29.67,10.0,North,17.3,-,N/A,,Clear,350,2013-02-18 05:53:00
11:53 PM,34.0,26.1,73,29.69,10.0,NNW,15.0,-,N/A,,Clear,330,2013-02-18 06:53:00